User: anonymous   Login
Location: Fort Wayne
(41.1310°N, 85.1290°W)
Time: 19:32:00
(UTC-05:00)
Language:

Cosmos 2227 Rocket - Orbit

View from above orbital plane
View from above orbital plane
View from above satellite
View from above satellite

Ground track
Ground track

The orbit data is extracted from the following two-line orbital elements,

1 22285U 92093B   17345.81287820 -.00000295  00000-0 -12786-3 0  9993
2 22285  71.0203 199.6659 0006061 236.0322 124.0226 14.15017489287666
Epoch (UTC): 11 December 2017 19:30:32
Eccentricity: 0.0006061
inclination: 71.0203°
perigee height: 838 km
apogee height: 846 km
right ascension of ascending node: 199.6659°
argument of perigee: 236.0322°
revolutions per day: 14.15017489
mean anomaly at epoch: 124.0226°
orbit number at epoch: 28766

The dashed part of the orbit path shows where the satellite is in the earth's shadow,  

DLR